Weather in Nizhny Lomov

Russia / Penza Oblast     53°31′48″N   43°40′22″E
temp.,
°C
wind,
m/s
gust,
m/s
humid.,
%
clouds,
%
prec.,
mm/h
press.,
hPa
HPBL,
m
4 march, thu
thu400:00−5wsw5129590 0.1 1011419
03:00−3wsw6139490 0.1 1009555
06:00−2wsw71393100 0.1 1006743
09:00−1wsw91591100 0.2 1004844
12:000wsw91690100 0.1 1002828
15:00+1wsw91589100 0.1 1002990
18:00−1wsw71393100 0.1 1001806
21:00−2wsw41195100 0.3 1001553
5 march, fri
fri500:00−2wsw51096100 0.3 1000407
03:00−2w4897100 1.1 1001425
06:00−4nne3597100 0.9 1002203
09:00−3nnw3596100 1.4 1005336
12:00−3nnw4591100 0.3 1007517
15:00−3nw358891 0.3 1009553
18:00−7w339116 0.0 101123
21:00−9w349337 0.0 101481
6 march, sat
sat600:00−10w369566 0.0 101491
03:00−11wnw339380 0.0 101637
06:00−13nnw2294100 0.0 101621
09:00−11n1192100 0.0 101766
12:00−7ne2286100 0.0 1016312
15:00−6ne128293 0.0 1015449
18:00−11ese119279 0.0 101521
21:00−13s129258 0.0 101620
7 march, sun
sun700:00−12sw339295 0.0 101548
03:00−11sw379597 0.1 1015155
06:00−13wsw359682 0.0 101593
09:00−11wsw599373 0.1 1014293
12:00−7sw8138456 0.0 1011677
15:00−5sw10168378 0.0 10071081
18:00−5sw111891100 0.2 10031167
21:00−4sw101693100 1.6 10011073
8 march, mon
mon800:00−7wnw51189100 0.6 1002509
03:00−11wsw459167 0.6 100371
06:00−13ssw47770 0.0 100388
09:00−8ssw6118733 0.0 1000393
12:00−3sw71089100 0.4 9981069
15:00−6w111571100 1.4 9991552
18:00−9w9168857 0.1 1004967
21:00−10w8168778 0.1 1008669